Flag for Mauritania Weather past 2 weeks in Nouakchott, Mauritania

Now
79 °F

Clear.


Feels Like: 80 °F
Forecast: 79 / 94 °F
Wind: 10 mph from North

Location: Nouakchott Airport

Current Time: Aug 29, 2015 at 8:21:58 AM

Latest Report: Aug 29, 2015 at 7:30 AM


Visibility: 4 mi

Pressure: 29.80 "Hg

Humidity: 58%

Dew point: 63 °F

Location of NouakchottLocation

Historic Weather in Nouakchott — Graph

°F

Nouakchott temperature yesterday

Maximum temperature yesterday: 93 °F (at 11:30 AM)
Minimum temperature yesterday: 81 °F (at 3:30 AM)
Average temperature yesterday: 85 °F

Past Weeks' High & Low Weather Summary

 TemperatureHumidityPressure
High99 °F (Aug 17, 2:30 PM)100% (Aug 22, 4:00 PM)29.98 "Hg (Aug 22, 4:00 PM)
Low70 °F (Aug 22, 3:30 PM)30% (Aug 28, 12:00 PM)29.74 "Hg (Aug 15, 2:30 AM)
Average85 °F71%29.84 "Hg
* Reported Aug 14 7:00 AM — Aug 29 7:00 AM, Nouakchott, Weather by CustomWeather, © 2015

Note: Actual official high and low records may vary slightly from our data, if they occured in-between our weather recording intervals... More about our weather records

Advertising

Nouakchott weather history for previous 24 hours

 ConditionsComfort  
Time TempWeatherWind HumidityBarometerVisibility
7:00 AM
Sat, Aug 29
79 °FClear.9 mph58%29.77 "Hg4 mi
6:00 AM79 °FClear.8 mph65%29.77 "Hg4 mi
5:30 AM79 °FClear.8 mph65%29.80 "Hg4 mi
5:00 AM79 °FClear.10 mph65%29.77 "Hg4 mi
4:30 AM81 °FClear.12 mph62%29.77 "Hg4 mi
4:00 AM79 °FClear.7 mph74%29.77 "Hg4 mi
3:30 AM81 °FClear.7 mph74%29.77 "Hg4 mi
3:00 AM81 °FClear.9 mph74%29.77 "Hg4 mi
2:30 AM81 °FClear.7 mph79%29.77 "Hg4 mi
2:00 AM81 °FClear.7 mph79%29.80 "Hg4 mi
1:30 AM81 °FClear.7 mph79%29.80 "Hg4 mi
1:00 AM81 °FClear.7 mph79%29.80 "Hg4 mi
12:30 AM81 °FClear.8 mph79%29.83 "Hg4 mi
12:00 AM82 °FClear.8 mph74%29.83 "Hg4 mi
11:30 PM
Fri, Aug 28
82 °FClear.7 mph74%29.83 "Hg4 mi
11:00 PM82 °FClear.13 mph70%29.80 "Hg4 mi
10:30 PM82 °FClear.12 mph70%29.80 "Hg4 mi
10:00 PM84 °FClear.9 mph66%29.80 "Hg4 mi
9:30 PM84 °FClear.8 mph66%29.80 "Hg4 mi
9:00 PM84 °FClear.12 mph66%29.80 "Hg4 mi
8:30 PM84 °FClear.9 mph66%29.77 "Hg4 mi
8:00 PM84 °FClear.14 mph66%29.77 "Hg4 mi
7:30 PM84 °FClear.17 mph66%29.74 "Hg4 mi
7:00 PM84 °FClear.15 mph70%29.74 "Hg4 mi
6:30 PM86 °FClear.15 mph66%29.74 "Hg4 mi
6:00 PM86 °FClear.15 mph66%29.74 "Hg4 mi
5:30 PM88 °FClear.13 mph62%29.74 "Hg4 mi
5:00 PM88 °FClear.14 mph62%29.74 "Hg4 mi
4:30 PM88 °FClear.15 mph62%29.74 "Hg4 mi
4:00 PM90 °FClear.14 mph52%29.77 "Hg4 mi
3:30 PM90 °FClear.14 mph52%29.77 "Hg4 mi
3:00 PM90 °FClear.12 mph49%29.77 "Hg4 mi
2:30 PM90 °FClear.13 mph52%29.80 "Hg4 mi
2:00 PM90 °FClear.10 mph49%29.80 "Hg4 mi
1:30 PM90 °FClear.13 mph49%29.80 "Hg4 mi
1:00 PM91 °FDuststorm.9 mph41%29.83 "Hg3 mi
12:30 PM93 °FDuststorm.8 mph39%29.83 "Hg2 mi
12:00 PM93 °FDuststorm.2 mph30%29.83 "Hg2 mi
11:30 AM93 °FDuststorm.1 mph32%29.86 "Hg2 mi
11:00 AM90 °FDuststorm.6 mph36%29.86 "Hg2 mi
10:30 AM88 °FDuststorm.8 mph40%29.86 "Hg2 mi
10:00 AM86 °FDuststorm.5 mph43%29.86 "Hg2 mi
9:30 AM86 °FDuststorm.7 mph43%29.89 "Hg2 mi
9:00 AM82 °FDuststorm.10 mph48%29.86 "Hg2 mi
8:30 AM82 °FDuststorm.12 mph48%29.83 "Hg2 mi
8:00 AM82 °FDuststorm.10 mph51%29.80 "Hg2 mi
Weather by CustomWeather, © 2015

See weather overviewHow to use our weather pages